国际通讯卫星 804星 (INTELSAT 804 (IS-804))

导读 | 星芒AI

INTELSAT 804(IS-804)是国际通信卫星组织(Intelsat)于1994年发射的一颗地球同步通信卫星,由Astrium(现为空中客车防务与航天)制造。该卫星主要用于提供跨大西洋的固定卫星服务(FSS),支持电视广播、数据传输和电话通信。IS-804搭载C波段和Ku波段转发器,运行在东经335度轨道位置。尽管服役多年,IS-804在卫星通信领域发挥了重要作用,直到被更先进的卫星取代。

基本信息
目录编号:
25110
目录名称:
INTELSAT 804
国际标识:
1997-083A
轨道中心:
EARTH
卫星名称:
国际通讯卫星 804星
卫星全名:
国际通讯卫星 804星 (INTELSAT 804 (IS-804))
卫星状态:
在轨 (已飞行10221 天)
发射日期:
1997-12-21 UTC
国别 :
(ITSO)
星等 :
--
轨道信息
数据来源 国际轨道数据 AOE轨道数据
星历时间 2025-12-14T15:29:52+0800
1天前
查看轨道信息
2025-12-15T00:00:00+0800
15小时前
查看轨道信息
半长轴 42171.177km 42171.794km
偏心率 0.0003924 0.0003559
轨道倾角 12.963° 12.963°
近地点辐角 0.990° 2.445°
升交点赤经 18.998° 18.995°
平近点角 348.642° 115.034°
近地点 35776.494km 35778.65km
远地点 35809.59km 35808.668km
周期 1436.426分钟 1436.458分钟
每日圈数 1.002488 1.002466
详细信息
卫星平台:
AS-7000
平衡模式:
三轴稳定
覆盖范围:
全球
运营商:
国际卫星通信公司
运营商所在国:
美国
制造商(研发单位):
洛克希德·马丁公司
制造商所在国:
美国
使用方式:
暂无
卫星简介
从1965年4月至1984年3月,国际通信卫星组织发射了5代、6种不同性能的卫星共计35颗,除6颗卫星因运载火箭和远地点发动机故障而发射失败外,其余29颗卫星均被送到了预定的静止轨道位置。1984年8月前后,国际通信卫星组织利用部署在大西洋、太平洋、印度洋上空的15颗国际通信卫星,为遍布世界各地170多个国家或地区提供电话、电传、电报、电视和数据传输等电信业务;该卫星已退役。
2D轨道图
3D轨道图
轨道高度分析图
轨道倾角分析图
轨道综合分析图
查看轨道综合分析图